FENGYUN 1C DEB, 30235

Orbit data source: Space-Track

FENGYUN 1C DEB, 30235 is space debris in SSO originally from a launch on Mon, 10 May 1999 UTC launched from the Taiyaun Space Center, China (TSC). Fengyun 1C debris stems from the Chinese weather satellite Fengyun-1C, which was intentionally destroyed by a Chinese anti-satellite missile in 2007. This event dramatically increased the amount of space debris, with thousands of trackable fragments posing hazards to satellites and human spaceflight. The Fengyun 1C debris cloud has become a focal point in discussions about space sustainability and the need for international regulations to prevent the creation of new debris.

Loading next visibility...
Identifier
30235, 1999-025WU
Orbit
SSO
Country
Flag of CNCN / PRC
Related business
Manufacturer
Unknown
Mission
Spacecraft
Bus & Motor
Unknown
Mass
Unknown
Launch date (UTC)
1999-05-10 (27 years ago)
Launch vehicle
Unknown
Launch site
Taiyaun Space Center, China (TSC)
Object type
Payload
Rocket body
Debris
Shape & HBR
Unknown shape, 0.1 m
Radar Cross Section
Medium (>0.1 m² and <1 m²)

Expand to show TLE details & history
Last TLE update: 6 hours ago

TLE from 6 hours ago
0 FENGYUN 1C DEB
1 30235U 99025WU  26167.28979444  .00000453  00000-0  25535-3 0  9992
2 30235  98.7361 185.0123 0155405  74.3905 302.2522 14.09039225995067
Epoch: 2026-06-16T06:57Z
TLE epoch observation values (Epoch: 2026-06-16T06:57:18.239Z)
Latitude
14.91676°
Longitude
173.78873°
Altitude
806.059 km
Speed
7.482 km/s
True Right ascension
12h 10m 42s
True Declination
14° 49' 55"
Sunlit
Object was in daylight at epoch
Visualization orbit readout
Latitude
Unknown
Longitude
Unknown
Altitude
Unknown
Speed
Unknown
Apparent Right ascension
Unknown
Apparent Declination
Unknown
Sunlit
N/A
Visualization observer readout
Local Sidereal Time
23:45:56
Azimuth
Unknown
Elevation
Unknown
Doppler factor
Unknown
Orbital elements
Apogee altitude
972.317 km
Perigee altitude
747.353 km
Semi-major axis
7,237.972 km
Eccentricity
0.01554
Inclination
98.7361°
RAAN
185.0123°
Arg. of periapsis
74.3905°
True anomaly
300.73057°
Mean anomaly
302.2522°
Eccentric anomaly
301.49295°
Mean motion
3.52466 °/min
Orbital period
102.14 mins
BSTAR
0.00025535
Loading maneuver chart data...
Computing Atmospheric mass density...

Documentation

Showing up to 5 results
|